User: anonymous   Login
Location: Chanteloup
(48.8560°N, 2.7390°E)
Time: 00:07:23
(UTC+00:00)
Language:

Cosmos 2322 Rocket - Orbit

View from above orbital plane
View from above orbital plane
View from above satellite
View from above satellite

Ground track
Ground track

The orbit data is extracted from the following two-line orbital elements,

1 23705U 95058B   22276.48481253 -.00000108  00000-0 -31189-4 0  9995
2 23705  71.0213 290.6076 0014455 236.4595 123.5147 14.15186223390835
Epoch (UTC): 03 October 2022 11:38:07
Eccentricity: 0.0014455
inclination: 71.0213°
perigee height: 831 km
apogee height: 852 km
right ascension of ascending node: 290.6076°
argument of perigee: 236.4595°
revolutions per day: 14.15186223
mean anomaly at epoch: 123.5147°
orbit number at epoch: 39083

The dashed part of the orbit path shows where the satellite is in the earth's shadow,  

DLR